Theta_e
327 328 330 330 333 331 340 337 334 339 340 336 336 339 337 336 339 342 330 335 334 323 331 336 331 333 335 336 336 333 332 336 337 336 332 329 328 327 327 327 327 327 327 326 326 326 324 321 317
326 328 329 325 333 338 337 334 338 337 338 335 336 335 335 335 328 330 333 335 331 322 333 335 329 334 335 335 335 332 336 337 336 334 331 329 329 327 328 328 328 327 327 326 326 326 327 324 321
326 328 326 329 330 337 336 336 337 336 335 336 338 334 333 331 328 332 333 333 324 328 334 332 328 333 336 335 334 336 337 336 335 333 330 329 329 328 328 328 327 327 326 326 327 327 325 323 322
326 322 321 332 336 334 335 335 337 336 335 334 335 337 333 331 329 330 334 330 320 329 335 330 327 327 334 336 337 337 336 335 334 332 330 329 329 328 328 327 321 324 325 326 324 321 320 318 318
323 321 329 332 334 334 333 338 337 339 337 337 336 338 336 330 330 332 334 328 328 334 334 330 328 325 323 329 333 334 333 330 325 317 324 325 324 325 324 319 318 320 321 321 320 319 320 321 321
325 321 330 334 335 332 332 335 337 337 337 336 336 336 337 328 332 333 331 328 333 334 333 330 328 323 319 317 319 321 320 317 315 316 319 318 317 317 317 319 320 321 320 319 318 319 322 323 323
326 326 329 329 333 335 334 334 338 336 337 336 333 337 334 326 329 329 327 328 333 333 332 330 324 321 319 317 316 317 319 316 316 318 318 317 319 321 321 321 319 317 317 318 320 322 323 323 323
323 325 330 328 334 336 331 331 334 335 336 332 332 335 336 326 327 327 329 331 333 333 331 326 324 323 319 317 316 316 320 318 317 319 322 322 321 318 317 317 317 318 322 324 324 325 326 326 327
322 328 331 329 333 333 329 332 333 333 336 334 333 331 330 326 329 332 333 334 335 332 330 327 326 323 319 316 316 315 316 318 321 324 324 324 324 322 322 322 325 325 325 326 327 327 327 328 328
326 327 329 326 327 330 329 329 331 336 336 335 335 331 327 325 330 331 330 329 330 332 330 329 325 323 319 317 318 318 322 323 326 327 326 326 324 324 326 327 327 328 328 328 328 328 329 329 330
326 328 327 325 323 323 327 326 327 335 336 333 334 332 327 326 329 329 330 329 329 332 331 327 326 326 322 316 320 323 325 326 328 328 327 326 327 327 327 328 328 329 329 329 329 330 330 330 330
328 327 327 326 322 323 325 323 326 332 332 331 331 331 328 325 327 329 329 330 331 331 329 327 327 328 323 316 322 327 327 327 327 328 328 326 327 328 329 330 329 328 327 330 331 330 329 328 327
328 327 326 325 321 322 322 323 326 328 332 330 331 331 329 325 326 328 329 330 329 329 328 328 327 328 325 319 324 328 328 328 329 328 327 327 328 329 329 327 327 327 328 330 330 328 327 323 320
326 327 327 326 323 323 325 324 328 333 331 332 332 331 330 327 323 325 327 328 329 330 330 329 328 328 326 326 329 329 329 329 329 329 327 328 329 328 327 327 326 327 328 327 326 325 323 319 316
327 329 328 328 326 324 324 327 326 332 332 333 332 331 330 329 324 324 326 327 328 329 330 329 328 328 327 329 329 329 329 329 329 328 327 327 327 326 326 327 326 325 324 324 323 320 315 313 311
331 331 334 329 328 325 324 328 324 334 334 333 332 330 330 329 326 324 325 326 327 329 330 329 328 329 328 329 328 328 329 329 327 325 324 325 325 327 327 326 324 321 321 319 313 311 310 305 303
333 336 333 331 327 327 325 327 324 334 335 333 331 330 330 329 327 325 326 326 326 327 328 329 329 329 329 328 328 329 328 327 325 325 324 325 324 323 323 321 319 315 312 309 306 306 305 300 300
325 334 333 332 329 328 327 326 324 336 336 335 332 330 330 330 328 325 327 327 327 327 327 328 329 330 329 329 327 327 325 322 321 320 320 319 318 317 317 314 310 306 302 300 299 298 297 297 298
319 315 316 331 327 331 329 328 325 326 335 335 334 331 329 329 328 326 328 329 329 328 329 330 331 331 330 328 325 322 320 317 316 315 315 314 312 311 310 306 302 298 297 297 296 296 296 296 297
322 319 318 328 328 331 331 329 327 324 330 332 335 334 331 326 320 320 325 328 329 329 330 330 329 330 329 329 326 324 319 312 310 307 307 306 303 300 297 296 296 296 295 295 295 294 294 295 295
318 318 318 319 330 329 331 333 330 327 325 322 332 334 332 327 319 312 311 315 322 325 326 329 329 329 327 327 325 320 313 306 302 299 296 294 294 294 296 296 294 295 294 293 292 291 292 292 293
320 317 317 323 330 335 330 336 333 329 327 324 329 334 331 322 313 309 307 307 312 314 319 322 324 325 324 324 321 316 307 299 295 294 294 296 297 296 294 296 295 296 294 295 291 290 289 289 290
318 315 316 317 329 333 333 334 333 330 331 325 333 331 323 317 313 309 304 303 304 311 313 313 316 318 317 316 312 309 300 295 295 298 299 299 302 304 300 302 302 298 290 289 288 288 288 288 289
313 315 317 323 330 334 331 334 332 332 330 326 328 322 317 314 310 305 303 303 302 306 308 309 310 308 309 309 305 301 297 297 300 303 303 303 302 303 300 293 289 288 288 287 287 286 286 287 286
314 316 324 326 327 331 330 332 331 327 327 325 326 320 314 310 307 306 304 302 302 302 303 304 305 302 303 303 300 300 302 303 302 302 302 301 298 291 288 288 288 287 286 286 286 285 285 285 284
315 316 321 323 329 328 328 332 330 318 319 320 322 313 308 306 306 305 303 302 300 300 300 301 300 300 299 301 301 301 304 304 303 300 297 291 288 287 287 287 286 286 285 285 285 284 283 283 283
314 319 314 318 318 327 326 321 316 317 315 316 310 308 306 303 301 300 300 300 300 300 300 300 300 301 302 302 303 302 302 302 298 294 289 287 286 286 286 286 285 285 284 284 283 283 283 282 282
316 316 320 319 324 327 326 326 327 317 315 311 309 307 304 302 300 300 300 300 300 299 300 301 301 301 301 301 301 299 297 292 289 287 287 287 286 286 285 285 284 283 283 283 283 282 281 281 281
315 319 319 319 319 323 327 326 308 317 315 311 307 304 303 301 301 301 301 299 298 299 299 299 300 299 298 298 295 292 289 287 287 287 286 286 285 285 284 283 283 282 282 282 282 281 281 280 279
314 318 319 320 322 319 319 322 306 311 314 311 307 304 302 301 301 301 299 297 296 296 296 296 295 294 293 291 289 287 286 286 286 286 285 285 284 284 284 283 282 281 281 280 281 280 280 279 279
Wind_Speed
23 9 3 3 3 4 2 1 4 3 3 5 3 3 6 4 2 3 12 10 22 22 20 16 13 10 7 8 17 18 14 17 18 15 13 12 12 11 11 11 11 11 11 10 10 9 10 10 10
20 4 3 2 4 2 4 3 3 1 5 7 6 4 5 2 3 6 11 19 24 23 20 16 14 12 12 14 18 16 17 20 17 14 12 12 11 11 10 10 10 9 9 9 9 10 10 11 11
11 3 2 4 3 4 4 3 1 4 7 1 4 5 4 3 3 14 12 26 24 23 19 16 15 14 15 16 17 18 20 19 15 12 12 12 11 10 10 9 8 8 8 9 9 8 9 10 9
6 4 3 3 4 5 5 5 5 5 3 6 5 7 2 4 13 12 27 27 25 23 19 17 16 15 16 18 20 20 19 15 12 11 12 11 11 13 10 7 7 8 8 8 8 9 10 10 10
3 3 2 1 4 3 3 3 7 3 2 3 1 5 3 2 14 24 28 27 26 23 21 18 16 15 15 14 14 14 12 11 10 10 12 11 10 9 7 6 7 7 7 7 8 9 10 11 12
3 3 2 3 4 3 2 4 7 5 4 3 5 5 2 15 30 32 28 27 26 26 21 18 16 14 14 13 13 12 11 10 10 12 11 10 10 9 8 7 6 6 7 8 8 8 8 9 10
2 3 4 3 4 2 4 4 4 7 6 4 9 4 4 12 31 30 28 27 27 25 22 19 16 14 12 12 12 12 11 12 12 12 11 10 9 8 7 7 7 7 8 8 8 8 8 9 9
2 2 2 5 5 6 3 3 5 9 3 5 4 7 6 15 32 31 28 27 26 23 21 19 17 14 12 12 12 12 12 12 12 12 11 10 10 9 9 8 7 7 7 7 7 7 8 9 10
3 1 4 5 7 5 4 3 1 2 8 1 2 5 7 34 33 29 25 22 23 24 22 20 16 14 12 13 13 13 13 13 13 13 11 10 8 7 7 6 6 5 5 6 6 7 8 10 11
4 3 7 4 3 5 6 6 9 5 6 3 1 2 29 31 30 26 24 23 22 24 24 20 17 15 14 14 14 14 14 13 12 10 8 7 7 6 5 4 4 4 4 4 5 8 9 11 12
4 5 5 4 3 4 6 5 6 8 5 7 10 16 19 27 24 24 21 23 24 26 26 22 19 16 14 15 15 15 15 13 11 8 7 6 5 4 3 2 2 3 6 7 7 8 9 11 12
6 7 9 7 3 2 5 5 6 8 5 7 12 26 22 19 22 24 22 25 28 29 27 24 21 18 14 15 16 15 14 11 10 7 6 5 5 3 2 2 4 4 6 7 8 10 12 13 13
11 8 6 8 7 4 2 6 6 7 3 9 14 18 17 17 21 22 28 29 29 29 28 26 23 20 15 17 17 15 12 10 8 6 5 6 4 3 2 2 3 4 5 6 8 10 13 16 14
7 17 15 6 8 4 5 4 7 2 6 10 16 17 14 15 22 20 25 28 30 29 29 26 24 21 18 19 16 14 12 9 8 7 6 6 4 2 2 4 3 4 5 6 11 11 12 13 13
6 7 15 19 7 6 5 5 6 6 10 13 14 15 12 12 21 23 27 30 30 28 29 26 24 22 19 17 16 13 10 11 10 8 7 6 5 5 4 2 3 3 5 7 9 8 8 9 11
18 5 10 18 18 9 6 7 6 13 15 15 14 12 13 12 18 23 28 31 30 29 29 25 26 22 20 16 13 14 14 13 11 10 8 7 6 6 5 2 1 2 5 7 5 7 7 10 13
12 14 25 15 18 7 9 5 6 12 13 13 14 14 13 11 12 23 31 32 31 31 30 27 26 23 20 17 18 17 15 14 12 11 9 7 5 4 2 1 1 1 2 4 5 6 9 15 16
6 21 13 21 25 17 9 6 4 15 15 15 13 11 13 14 14 22 29 32 31 32 31 28 27 23 22 18 17 17 15 14 13 11 9 7 7 5 4 5 5 5 7 10 10 11 12 15 18
6 4 14 18 15 14 16 14 9 10 11 10 11 11 12 12 10 21 27 29 30 30 31 29 27 23 23 21 20 19 17 15 13 11 10 9 8 7 7 8 8 11 12 13 13 11 14 17 18
21 7 12 16 13 17 15 14 15 7 11 11 15 13 12 9 6 12 19 21 20 20 21 21 25 25 25 25 21 20 20 14 14 13 12 11 11 13 13 13 13 13 13 14 15 14 11 11 17
6 9 11 13 9 10 14 14 5 4 2 6 9 13 13 14 13 8 13 20 22 20 19 19 20 24 25 24 22 23 20 19 17 17 19 19 18 16 15 15 14 15 14 15 16 15 13 11 10
6 3 5 15 16 14 17 10 18 13 8 4 7 13 13 12 9 8 13 17 20 17 17 17 19 20 21 22 24 26 25 23 18 21 21 20 17 16 14 15 12 14 11 12 12 12 12 12 13
4 2 8 16 15 9 16 10 8 24 18 7 8 11 12 12 12 11 13 16 17 20 18 18 19 20 21 23 24 27 25 27 26 23 18 16 14 12 8 8 8 10 11 12 11 13 14 15 15
2 6 17 8 9 12 9 14 12 21 30 12 8 9 11 12 12 14 15 15 15 20 20 19 19 18 17 18 20 23 28 25 22 20 16 12 8 7 8 10 10 11 12 12 13 14 15 16 16
3 5 4 3 3 2 18 11 2 13 23 22 17 14 12 11 11 12 13 13 11 21 21 21 22 24 23 26 30 32 29 24 15 13 12 10 10 11 13 11 11 11 11 12 12 14 15 15 15
4 4 1 3 2 3 10 7 3 3 6 5 15 14 14 10 9 10 14 17 14 19 24 26 29 32 31 32 30 24 25 20 16 12 13 11 12 12 11 10 10 10 11 11 11 12 14 14 14
4 3 6 2 3 2 4 2 1 5 8 12 14 14 13 13 10 10 13 18 18 20 24 27 30 32 29 26 24 20 18 17 17 16 14 13 12 12 10 9 9 10 10 11 11 13 12 11 12
3 6 3 1 4 3 1 2 2 5 7 10 11 12 11 10 11 10 13 16 21 22 27 31 28 25 22 21 19 18 18 17 17 16 15 12 11 10 10 9 9 10 10 9 9 11 10 10 10
2 3 4 3 1 3 2 2 4 4 10 11 9 10 11 11 11 10 14 15 18 26 27 25 23 21 19 19 20 20 19 18 17 15 13 11 11 10 10 9 9 9 8 8 7 9 8 9 9
1 2 1 3 3 2 1 2 5 4 10 11 10 9 9 10 11 10 15 17 15 22 21 21 19 20 20 21 21 20 19 18 16 14 13 11 11 10 9 8 7 7 7 7 7 7 7 7 7
Wind_Direction
354 344 333 47 64 64 247 164 279 179 100 340 54 102 136 46 135 184 146 148 155 147 147 148 149 138 120 137 163 157 155 144 125 114 107 106 104 100 98 95 90 84 82 79 75 70 64 62 63
351 348 30 81 100 107 252 268 203 224 125 150 89 83 47 84 97 126 130 154 155 149 148 150 144 126 110 117 139 144 145 132 120 112 105 105 106 106 100 96 92 86 80 76 72 67 60 58 58
350 49 69 109 121 184 202 210 199 79 162 242 102 59 110 129 83 144 156 155 152 151 152 151 144 130 114 120 134 136 133 127 126 120 113 112 112 115 111 102 94 88 80 73 69 64 58 57 56
337 31 28 104 214 251 197 188 125 118 157 65 112 77 63 112 150 165 155 156 153 153 155 151 147 138 130 124 124 128 133 135 132 128 126 126 124 119 117 105 92 87 80 72 63 59 58 57 52
19 61 55 295 251 262 220 222 131 106 76 107 27 144 98 57 162 153 158 161 155 155 156 153 151 147 145 144 144 145 143 139 136 130 127 126 127 130 125 107 96 87 79 71 66 65 64 57 53
25 96 92 233 243 256 226 245 141 132 100 153 93 107 107 146 146 153 162 165 160 158 159 157 155 153 152 153 155 156 151 145 136 128 125 124 123 121 116 107 97 89 82 76 70 69 61 51 46
114 107 204 210 242 262 218 174 176 122 128 234 151 99 97 155 153 159 164 166 159 161 162 160 158 156 155 156 158 157 149 142 136 134 131 126 123 118 112 106 98 90 81 70 61 59 50 37 29
132 127 221 221 198 239 213 190 157 121 119 117 165 165 173 177 159 160 160 161 163 165 166 164 163 164 163 162 162 157 149 143 140 137 134 130 128 120 112 106 97 89 74 61 55 42 27 16 5
121 357 223 231 160 217 192 158 252 59 112 106 260 168 175 162 161 152 150 154 160 169 172 171 170 170 169 165 159 154 149 145 143 139 135 132 124 115 107 101 86 74 60 44 37 16 1 350 345
165 203 225 221 212 190 192 171 160 134 138 216 233 68 135 151 157 156 161 166 168 171 176 177 177 175 173 169 162 154 150 148 143 144 145 142 134 128 117 93 72 60 32 11 352 346 350 339 336
204 213 264 267 217 222 193 178 190 136 218 200 184 154 149 152 162 164 168 169 172 176 179 182 179 175 177 173 166 160 154 151 149 151 151 151 141 137 116 80 61 29 349 329 329 338 336 334 330
222 238 250 289 227 224 185 160 188 171 203 187 169 160 153 162 170 170 172 174 177 180 182 181 182 178 175 176 171 166 165 161 166 164 162 167 149 139 112 41 4 349 333 333 338 338 335 332 332
228 214 272 250 257 231 199 197 192 185 32 124 141 161 162 166 169 173 176 180 178 181 183 184 184 182 176 177 175 178 175 175 168 168 179 171 172 152 107 25 342 329 324 334 336 331 331 335 340
177 231 236 278 270 262 195 223 154 157 127 133 155 172 171 169 171 170 176 180 182 187 188 188 186 187 182 178 177 174 176 179 182 180 179 186 174 154 119 256 289 301 334 340 329 333 336 340 345
225 211 224 244 259 272 169 247 209 139 142 152 169 176 176 173 170 176 181 181 184 188 187 186 186 185 185 182 188 183 188 188 185 188 190 193 193 207 237 247 317 344 352 334 319 327 337 351 3
213 202 211 211 227 250 190 224 223 155 153 175 175 182 183 189 180 180 185 187 187 182 185 190 188 187 187 190 191 185 183 180 186 185 190 194 203 206 207 224 250 358 333 322 347 4 6 8 6
208 209 217 213 212 223 204 211 182 168 160 178 184 189 191 186 181 185 190 194 191 192 187 186 188 188 190 190 179 179 169 168 162 159 160 160 168 160 181 158 41 354 48 65 60 44 18 3 1
323 216 213 214 210 222 220 231 178 178 172 184 189 185 192 190 195 189 194 198 197 195 193 188 190 191 193 185 170 163 155 149 148 146 139 143 139 143 141 113 102 94 80 69 57 40 27 15 0
220 273 325 207 203 197 226 209 221 184 194 177 184 187 188 186 190 193 194 194 194 195 193 191 186 190 195 178 163 153 143 143 137 135 138 138 131 128 121 111 91 64 54 53 50 41 22 17 17
215 267 292 276 190 178 213 217 223 156 205 190 184 192 173 142 126 123 158 172 175 183 193 195 196 189 192 187 180 169 159 147 137 129 124 121 116 113 102 97 91 78 56 42 40 39 44 32 31
218 229 262 258 225 187 184 229 230 222 251 185 195 187 181 161 144 124 111 137 152 157 165 174 180 189 188 187 177 164 154 141 130 120 109 102 101 90 97 83 68 63 51 43 37 39 46 41 49
165 75 317 266 228 201 185 218 224 206 191 218 172 165 158 143 124 123 122 123 142 145 156 160 164 166 172 182 176 168 157 137 130 118 108 104 96 86 70 75 62 61 45 36 33 43 55 62 56
176 77 313 271 241 191 193 218 186 218 217 193 162 155 152 146 142 129 117 118 137 143 146 148 152 156 164 169 171 166 144 134 124 119 109 100 101 96 71 37 15 35 56 62 65 62 59 64 71
60 18 295 211 243 215 186 195 198 191 213 191 156 146 141 139 132 116 115 119 127 132 132 135 138 133 144 151 147 131 120 122 131 124 128 122 97 76 61 64 72 75 77 79 72 70 68 72 73
108 75 289 194 216 243 170 199 162 191 202 194 167 155 136 134 134 136 133 129 133 125 129 126 129 120 128 129 127 129 134 142 141 129 122 117 98 91 92 89 81 81 83 82 81 77 77 76 76
118 127 263 312 277 128 166 197 188 62 324 155 156 139 128 132 137 137 139 129 123 118 124 126 125 126 129 132 133 138 141 143 136 131 112 112 118 102 94 95 99 94 91 88 85 83 80 77 76
129 155 150 310 222 237 149 176 216 88 65 105 131 137 139 136 132 135 135 131 128 129 127 130 132 132 134 135 137 141 137 137 137 124 126 128 113 105 105 103 101 97 91 88 86 83 78 72 69
163 159 126 104 323 356 32 142 86 174 146 129 138 138 135 131 133 138 134 132 128 131 133 137 139 135 137 139 140 140 133 127 131 134 135 125 116 119 117 115 111 102 97 90 82 77 73 69 64
315 148 99 116 259 309 15 35 326 170 155 148 145 144 143 146 142 141 125 119 131 136 140 138 137 139 140 139 136 135 136 139 136 129 125 127 126 126 126 121 112 105 95 89 80 75 68 61 59
25 35 195 156 230 323 81 343 322 84 144 142 145 147 141 135 133 128 126 134 135 131 139 138 141 144 144 142 142 140 144 139 132 132 135 133 134 133 128 123 115 101 87 81 76 70 64 57 55